Weather History for KMIE - October, 2012

Change the Weather History Date:

Saturday, October 20, 2012

  Actual Average Record
Temperature  
Mean Temperature 48 °F 52 °F  
Max Temperature 54 °F 63 °F 80 °F (1963)
Min Temperature 41 °F 42 °F 25 °F (1991)
Degree Days  
Heating Degree Days 17 13  
Month to date heating degree days 260 204  
Since 1 July heating degree days 385 305  
Cooling Degree Days 0 0  
Month to date cooling degree days 1 13  
Year to date cooling degree days 1142 952  
Moisture  
Dew Point 40 °F    
Average Humidity 74    
Maximum Humidity 89    
Minimum Humidity 59    
Precipitation  
Precipitation T in 0.09 in 1.12 in (1965)
Month to date precipitation 3.56 1.93  
Year to date precipitation 28.12 32.80  
Sea Level Pressure  
Sea Level Pressure 29.81 in    
Wind  
Wind Speed 8 mph (WSW)    
Max Wind Speed 18 mph    
Max Gust Speed 22 mph    
Visibility 10 miles    
Events Rain    
T = Trace of Precipitation, MM = Missing Value Source: NWS Daily Summary

Daily Weather History Graph

Daily Weather History Graph

Search for Another Location

Airport or City:

Trip Planner

Search our weather history database for the weather conditions in past years. The results will help you decide how hot, cold, wet, or windy it might be!

Date:

Astronomy

Oct. 20, 2012 Rise Set
Actual Time 7:58 AM EDT 6:53 PM EDT
Civil Twilight 7:30 AM EDT 7:21 PM EDT
Nautical Twilight 6:58 AM EDT 7:52 PM EDT
Astronomical Twilight 6:27 AM EDT 8:24 PM EDT
Moon 1:33 PM EDT (10/20) 11:38 PM EDT (10/20)
Length of Visible Light 11h 50m
Length of Day
10h 55m
Waxing Crescent, 34% of the Moon is Illuminated
Oct 20
Waxing Crescent
Oct 21
First Quarter
Oct 29
Full
Nov 6
Last Quarter
Nov 13
New

Hourly Weather History & Observations

Time (EDT) Temp. Windchill Dew Point Humidity Pressure Visibility Wind Dir Wind Speed Gust Speed Precip Events Conditions
12:53 AM 46.0 °F 42.5 °F 41.0 °F 83% 29.67 in 10.0 mi WSW 6.9 mph - N/A   Overcast
1:53 AM 46.0 °F 41.4 °F 42.1 °F 86% 29.68 in 10.0 mi WSW 9.2 mph - N/A   Overcast
2:26 AM 46.4 °F 41.9 °F 42.8 °F 87% 29.69 in 10.0 mi WSW 9.2 mph - N/A   Overcast
2:43 AM 46.4 °F 40.7 °F 42.8 °F 87% 29.69 in 10.0 mi WSW 12.7 mph - N/A   Mostly Cloudy
2:53 AM 46.0 °F 41.4 °F 42.1 °F 86% 29.69 in 10.0 mi WSW 9.2 mph - N/A   Overcast
3:12 AM 46.4 °F 41.9 °F 42.8 °F 87% 29.69 in 10.0 mi WSW 9.2 mph - N/A   Overcast
3:53 AM 46.0 °F 41.9 °F 42.1 °F 86% 29.70 in 10.0 mi WSW 8.1 mph 18.4 mph 0.00 in Rain Light Rain
4:53 AM 45.0 °F 41.2 °F 41.0 °F 86% 29.71 in 10.0 mi WSW 6.9 mph - 0.00 in   Overcast
5:12 AM 44.6 °F 39.7 °F 41.0 °F 87% 29.71 in 10.0 mi WSW 9.2 mph - N/A   Overcast
5:53 AM 45.0 °F 41.8 °F 41.0 °F 86% 29.72 in 10.0 mi West 5.8 mph - N/A   Overcast
6:53 AM 43.0 °F 39.5 °F 39.9 °F 89% 29.74 in 10.0 mi SW 5.8 mph - N/A   Partly Cloudy
7:53 AM 43.0 °F 38.8 °F 39.9 °F 89% 29.76 in 10.0 mi WSW 6.9 mph - N/A   Mostly Cloudy
8:01 AM 42.8 °F 39.3 °F 39.2 °F 87% 29.76 in 10.0 mi WSW 5.8 mph - N/A   Mostly Cloudy
8:35 AM 42.8 °F 37.5 °F 39.2 °F 87% 29.77 in 10.0 mi West 9.2 mph - N/A   Overcast
8:53 AM 44.1 °F 38.6 °F 39.9 °F 85% 29.78 in 10.0 mi West 10.4 mph - N/A   Overcast
9:53 AM 44.1 °F 38.6 °F 39.9 °F 85% 29.81 in 10.0 mi West 10.4 mph - N/A   Overcast
10:32 AM 44.6 °F 39.7 °F 41.0 °F 87% 29.82 in 10.0 mi West 9.2 mph 19.6 mph N/A   Overcast
10:53 AM 46.0 °F 40.6 °F 41.0 °F 83% 29.83 in 10.0 mi WNW 11.5 mph 19.6 mph N/A   Overcast
11:31 AM 48.2 °F - 41.0 °F 76% 29.83 in 10.0 mi West 10.4 mph - N/A   Mostly Cloudy
11:53 AM 48.9 °F - 41.0 °F 74% 29.83 in 10.0 mi West 8.1 mph - N/A   Mostly Cloudy
12:19 PM 50.0 °F - 41.0 °F 71% 29.84 in 10.0 mi West 11.5 mph - N/A   Scattered Clouds
12:53 PM 50.0 °F - 41.0 °F 71% 29.84 in 10.0 mi West 16.1 mph - N/A   Overcast
1:26 PM 50.0 °F - 41.0 °F 71% 29.84 in 10.0 mi West 11.5 mph - N/A   Mostly Cloudy
1:53 PM 52.0 °F - 41.0 °F 66% 29.84 in 10.0 mi WNW 11.5 mph - N/A   Overcast
2:53 PM 52.0 °F - 39.9 °F 63% 29.84 in 10.0 mi West 13.8 mph 20.7 mph N/A   Overcast
3:53 PM 52.0 °F - 39.9 °F 63% 29.86 in 10.0 mi West 13.8 mph - N/A   Overcast
4:53 PM 53.1 °F - 39.9 °F 61% 29.87 in 10.0 mi West 12.7 mph - N/A   Overcast
5:53 PM 52.0 °F - 39.9 °F 63% 29.88 in 10.0 mi West 9.2 mph - N/A   Mostly Cloudy
6:53 PM 48.9 °F - 39.9 °F 71% 29.91 in 10.0 mi West 4.6 mph - N/A   Clear
7:53 PM 46.9 °F - 39.0 °F 74% 29.92 in 10.0 mi Calm Calm - N/A   Clear
8:53 PM 43.0 °F - 37.9 °F 82% 29.94 in 10.0 mi Calm Calm - N/A   Scattered Clouds
9:53 PM 42.1 °F 39.2 °F 37.9 °F 85% 29.96 in 10.0 mi South 4.6 mph - N/A   Clear
10:53 PM 42.1 °F 39.2 °F 37.9 °F 85% 29.97 in 10.0 mi SSW 4.6 mph - N/A   Clear
11:53 PM 44.1 °F 40.8 °F 37.9 °F 79% 29.98 in 10.0 mi SW 5.8 mph - N/A   Clear